Time,TemperatureF,DewpointF,PressureIn,WindDirection,WindDirectionDegrees,WindSpeedMPH,WindSpeedGustMPH,Humidity,HourlyPrecipIn,Conditions,Clouds,dailyrainin,SoftwareType,DateUTC
2013-06-11 00:00:00,81.9,78.7,30.02,South,171,0.0,0.0,90,0.00,,,0.00,WeatherCatV1.13B119,2013-06-11 04:00:00,
2013-06-11 00:01:00,81.9,78.7,30.01,South,171,0.0,0.0,90,0.00,,,0.00,WeatherCatV1.13B119,2013-06-11 04:01:00,
2013-06-11 00:02:00,81.9,78.7,30.01,ENE,69,0.0,1.0,90,0.00,,,0.00,WeatherCatV1.13B119,2013-06-11 04:02:00,
2013-06-11 00:07:00,81.8,78.2,30.01,East,100,0.0,0.0,89,0.00,,,0.00,WeatherCatV1.13B119,2013-06-11 04:07:00,
2013-06-11 00:12:00,81.7,78.1,30.01,North,0,0.0,4.0,89,0.00,,,0.00,WeatherCatV1.13B119,2013-06-11 04:12:00,
2013-06-11 00:17:00,81.6,78.0,30.01,NNW,348,0.0,0.0,89,0.00,,,0.00,WeatherCatV1.13B119,2013-06-11 04:17:00,
2013-06-11 00:22:00,81.1,76.5,30.01,ESE,120,0.0,1.0,86,0.00,,,0.00,WeatherCatV1.13B119,2013-06-11 04:22:00,
2013-06-11 00:27:00,80.9,76.3,30.00,ESE,113,0.0,0.0,86,0.00,,,0.00,WeatherCatV1.13B119,2013-06-11 04:27:00,
2013-06-11 00:32:00,80.8,75.9,30.00,NE,54,0.0,1.0,85,0.00,,,0.00,WeatherCatV1.13B119,2013-06-11 04:32:00,
2013-06-11 00:37:00,80.8,75.9,30.00,SSE,155,0.0,0.0,85,0.00,,,0.00,WeatherCatV1.13B119,2013-06-11 04:37:00,
2013-06-11 00:42:00,80.8,76.2,30.00,East,90,0.0,0.0,86,0.00,,,0.00,WeatherCatV1.13B119,2013-06-11 04:42:00,
2013-06-11 00:47:00,80.8,76.2,30.00,East,92,0.0,0.0,86,0.00,,,0.00,WeatherCatV1.13B119,2013-06-11 04:47:00,
2013-06-11 00:52:00,80.8,76.2,30.00,East,92,0.0,1.0,86,0.00,,,0.00,WeatherCatV1.13B119,2013-06-11 04:52:00,
2013-06-11 00:57:00,80.8,76.2,30.00,ESE,115,0.0,1.0,86,0.00,,,0.00,WeatherCatV1.13B119,2013-06-11 04:57:00,
2013-06-11 01:02:00,80.8,76.2,30.00,ESE,106,0.0,1.0,86,0.00,,,0.00,WeatherCatV1.13B119,2013-06-11 05:02:00,
2013-06-11 01:07:00,80.8,76.2,30.00,ENE,74,0.0,0.0,86,0.00,,,0.00,WeatherCatV1.13B119,2013-06-11 05:07:00,
2013-06-11 01:12:00,80.7,75.8,30.00,ENE,74,0.0,0.0,85,0.00,,,0.00,WeatherCatV1.13B119,2013-06-11 05:12:00,
2013-06-11 01:17:00,80.8,75.9,30.00,ESE,115,0.0,0.0,85,0.00,,,0.00,WeatherCatV1.13B119,2013-06-11 05:17:00,
2013-06-11 01:22:00,80.8,75.5,30.00,ESE,111,0.0,0.0,84,0.00,,,0.00,WeatherCatV1.13B119,2013-06-11 05:22:00,
2013-06-11 01:27:00,80.8,75.5,30.01,East,93,0.0,0.0,84,0.00,,,0.00,WeatherCatV1.13B119,2013-06-11 05:27:00,
2013-06-11 01:30:00,80.9,75.9,30.00,NE,43,0.0,0.0,85,0.00,,,0.00,WeatherCatV1.13B119,2013-06-11 05:30:00,
2013-06-11 01:35:00,81.0,76.0,30.00,NE,51,0.0,0.0,85,0.00,,,0.00,WeatherCatV1.13B119,2013-06-11 05:35:00,
2013-06-11 01:40:00,80.9,75.6,30.00,NE,51,0.0,0.0,84,0.00,,,0.00,WeatherCatV1.13B119,2013-06-11 05:40:00,
2013-06-11 01:45:00,80.8,74.8,30.00,ESE,115,0.0,0.0,82,0.00,,,0.00,WeatherCatV1.13B119,2013-06-11 05:45:00,
2013-06-11 01:50:00,80.9,75.2,30.00,ESE,115,0.0,0.0,83,0.00,,,0.00,WeatherCatV1.13B119,2013-06-11 05:50:00,
2013-06-11 01:55:00,81.0,75.0,30.00,East,101,0.0,0.0,82,0.00,,,0.00,WeatherCatV1.13B119,2013-06-11 05:55:00,
2013-06-11 02:00:00,81.1,75.1,30.00,East,91,0.0,0.0,82,0.00,,,0.00,WeatherCatV1.13B119,2013-06-11 06:00:00,
2013-06-11 02:05:00,81.2,75.5,29.99,SE,138,0.0,0.0,83,0.00,,,0.00,WeatherCatV1.13B119,2013-06-11 06:05:00,
2013-06-11 02:10:00,81.3,76.0,29.99,ESE,112,0.0,1.0,84,0.00,,,0.00,WeatherCatV1.13B119,2013-06-11 06:10:00,
2013-06-11 02:15:00,81.4,76.1,30.00,East,86,0.0,0.0,84,0.00,,,0.00,WeatherCatV1.13B119,2013-06-11 06:15:00,
2013-06-11 02:20:00,81.4,76.1,30.00,ESE,110,0.0,0.0,84,0.00,,,0.00,WeatherCatV1.13B119,2013-06-11 06:20:00,
2013-06-11 02:25:00,81.4,76.1,29.99,East,100,0.0,1.0,84,0.00,,,0.00,WeatherCatV1.13B119,2013-06-11 06:25:00,
2013-06-11 02:30:00,81.4,76.1,29.99,East,100,0.0,0.0,84,0.00,,,0.00,WeatherCatV1.13B119,2013-06-11 06:30:00,
2013-06-11 02:36:00,81.3,76.0,29.99,ESE,105,0.0,0.0,84,0.00,,,0.00,WeatherCatV1.13B119,2013-06-11 06:36:00,
2013-06-11 02:41:00,81.3,76.3,29.98,East,96,0.0,0.0,85,0.00,,,0.00,WeatherCatV1.13B119,2013-06-11 06:41:00,
2013-06-11 02:46:00,81.3,76.3,29.98,East,96,0.0,0.0,85,0.00,,,0.00,WeatherCatV1.13B119,2013-06-11 06:46:00,
2013-06-11 02:51:00,81.4,77.1,29.98,East,82,0.0,0.0,87,0.00,,,0.00,WeatherCatV1.13B119,2013-06-11 06:51:00,
2013-06-11 02:56:00,81.4,77.5,29.98,East,86,0.0,0.0,88,0.00,,,0.00,WeatherCatV1.13B119,2013-06-11 06:56:00,
2013-06-11 03:01:00,81.4,77.5,29.98,ENE,73,0.0,0.0,88,0.00,,,0.00,WeatherCatV1.13B119,2013-06-11 07:01:00,
2013-06-11 03:06:00,81.4,77.8,29.98,ENE,73,0.0,0.0,89,0.00,,,0.00,WeatherCatV1.13B119,2013-06-11 07:06:00,
2013-06-11 03:11:00,81.4,77.8,29.98,East,83,0.0,1.0,89,0.00,,,0.00,WeatherCatV1.13B119,2013-06-11 07:11:00,
2013-06-11 03:16:00,81.3,78.1,29.98,East,83,0.0,0.0,90,0.00,,,0.00,WeatherCatV1.13B119,2013-06-11 07:16:00,
2013-06-11 03:21:00,81.3,78.1,29.97,East,83,0.0,0.0,90,0.00,,,0.00,WeatherCatV1.13B119,2013-06-11 07:21:00,
2013-06-11 03:26:00,81.2,78.3,29.98,East,85,0.0,0.0,91,0.00,,,0.00,WeatherCatV1.13B119,2013-06-11 07:26:00,
2013-06-11 03:31:00,81.1,78.2,29.98,ENE,59,0.0,1.0,91,0.00,,,0.00,WeatherCatV1.13B119,2013-06-11 07:31:00,
2013-06-11 03:36:00,81.0,78.1,29.97,ENE,75,0.0,0.0,91,0.00,,,0.00,WeatherCatV1.13B119,2013-06-11 07:36:00,
2013-06-11 03:41:00,80.9,78.0,29.97,ESE,108,0.0,1.0,91,0.00,,,0.00,WeatherCatV1.13B119,2013-06-11 07:41:00,
2013-06-11 03:46:00,80.9,78.0,29.97,East,85,0.0,0.0,91,0.00,,,0.00,WeatherCatV1.13B119,2013-06-11 07:46:00,
2013-06-11 03:51:00,80.8,77.9,29.97,East,86,0.0,0.0,91,0.00,,,0.00,WeatherCatV1.13B119,2013-06-11 07:51:00,
2013-06-11 03:56:00,80.8,78.2,29.97,NE,48,0.0,0.0,92,0.00,,,0.00,WeatherCatV1.13B119,2013-06-11 07:56:00,
2013-06-11 04:01:00,80.9,78.3,29.97,NE,48,0.0,1.0,92,0.00,,,0.00,WeatherCatV1.13B119,2013-06-11 08:01:00,
2013-06-11 04:06:00,80.9,78.3,29.97,NE,55,0.0,0.0,92,0.00,,,0.00,WeatherCatV1.13B119,2013-06-11 08:06:00,
2013-06-11 04:11:00,81.0,78.4,29.97,ENE,68,0.0,1.0,92,0.00,,,0.00,WeatherCatV1.13B119,2013-06-11 08:11:00,
2013-06-11 04:16:00,80.9,78.3,29.97,East,82,0.0,0.0,92,0.00,,,0.00,WeatherCatV1.13B119,2013-06-11 08:16:00,
2013-06-11 04:21:00,80.8,78.2,29.97,East,82,0.0,0.0,92,0.00,,,0.00,WeatherCatV1.13B119,2013-06-11 08:21:00,
2013-06-11 04:26:00,80.6,77.7,29.97,East,81,0.0,0.0,91,0.00,,,0.00,WeatherCatV1.13B119,2013-06-11 08:26:00,
2013-06-11 04:31:00,80.5,77.6,29.97,East,82,0.0,0.0,91,0.00,,,0.00,WeatherCatV1.13B119,2013-06-11 08:31:00,
2013-06-11 04:36:00,80.4,77.2,29.97,East,98,0.0,0.0,90,0.00,,,0.00,WeatherCatV1.13B119,2013-06-11 08:36:00,
2013-06-11 04:41:00,80.4,77.5,29.98,ESE,103,0.0,1.0,91,0.00,,,0.00,WeatherCatV1.13B119,2013-06-11 08:41:00,
2013-06-11 04:46:00,80.6,77.7,29.98,SSE,154,0.0,1.0,91,0.00,,,0.00,WeatherCatV1.13B119,2013-06-11 08:46:00,
2013-06-11 04:51:00,80.7,77.8,29.98,SE,130,0.0,0.0,91,0.00,,,0.00,WeatherCatV1.13B119,2013-06-11 08:51:00,
2013-06-11 04:56:00,80.6,77.7,29.97,SE,130,0.0,0.0,91,0.00,,,0.00,WeatherCatV1.13B119,2013-06-11 08:56:00,
2013-06-11 05:01:00,80.6,77.7,29.97,SE,130,0.0,0.0,91,0.00,,,0.00,WeatherCatV1.13B119,2013-06-11 09:01:00,
2013-06-11 05:06:00,-999.0,-99.9,29.97,North,-999,-999.0,0.0,-999,0.00,,,0.00,WeatherCatV1.13B119,2013-06-11 09:06:00,
2013-06-11 05:11:00,-999.0,-99.9,29.98,North,-999,-999.0,0.0,-999,0.00,,,0.00,WeatherCatV1.13B119,2013-06-11 09:11:00,
2013-06-11 05:16:00,-999.0,-99.9,29.97,North,-999,-999.0,0.0,-999,0.00,,,0.00,WeatherCatV1.13B119,2013-06-11 09:16:00,
2013-06-11 05:21:00,-999.0,-99.9,29.97,North,-999,-999.0,0.0,-999,0.00,,,0.00,WeatherCatV1.13B119,2013-06-11 09:21:00,
2013-06-11 05:26:00,-999.0,-99.9,29.98,North,-999,-999.0,0.0,-999,0.00,,,0.00,WeatherCatV1.13B119,2013-06-11 09:26:00,
2013-06-11 05:31:00,-999.0,-99.9,29.98,North,-999,-999.0,0.0,-999,0.00,,,0.00,WeatherCatV1.13B119,2013-06-11 09:31:00,
2013-06-11 05:36:00,-999.0,-99.9,29.98,North,-999,-999.0,0.0,-999,0.00,,,0.00,WeatherCatV1.13B119,2013-06-11 09:36:00,
2013-06-11 05:41:00,-999.0,-99.9,29.98,North,-999,-999.0,0.0,-999,0.00,,,0.00,WeatherCatV1.13B119,2013-06-11 09:41:00,
2013-06-11 05:46:00,-999.0,-99.9,29.98,North,-999,-999.0,0.0,-999,0.00,,,0.00,WeatherCatV1.13B119,2013-06-11 09:46:00,
2013-06-11 05:51:00,-999.0,-99.9,29.98,North,-999,-999.0,0.0,-999,0.00,,,0.00,WeatherCatV1.13B119,2013-06-11 09:51:00,
2013-06-11 05:56:00,-999.0,-99.9,29.98,North,-999,-999.0,0.0,-999,0.00,,,0.00,WeatherCatV1.13B119,2013-06-11 09:56:00,
2013-06-11 06:01:00,-999.0,-99.9,29.98,North,-999,-999.0,0.0,-999,0.00,,,0.00,WeatherCatV1.13B119,2013-06-11 10:01:00,
2013-06-11 06:06:00,-999.0,-99.9,29.98,North,-999,-999.0,0.0,-999,0.00,,,0.00,WeatherCatV1.13B119,2013-06-11 10:06:00,
2013-06-11 06:11:00,-999.0,-99.9,29.98,North,-999,-999.0,0.0,-999,0.00,,,0.00,WeatherCatV1.13B119,2013-06-11 10:11:00,
2013-06-11 06:16:00,-999.0,-99.9,29.98,North,-999,-999.0,0.0,-999,0.00,,,0.00,WeatherCatV1.13B119,2013-06-11 10:16:00,
2013-06-11 06:21:00,-999.0,-99.9,29.98,North,-999,-999.0,0.0,-999,0.00,,,0.00,WeatherCatV1.13B119,2013-06-11 10:21:00,
2013-06-11 06:26:00,-999.0,-99.9,29.98,North,-999,-999.0,0.0,-999,0.00,,,0.00,WeatherCatV1.13B119,2013-06-11 10:26:00,
2013-06-11 06:31:00,-999.0,-99.9,29.98,North,-999,-999.0,0.0,-999,0.00,,,0.00,WeatherCatV1.13B119,2013-06-11 10:31:00,
2013-06-11 06:36:00,-999.0,-99.9,29.98,North,-999,-999.0,0.0,-999,0.00,,,0.00,WeatherCatV1.13B119,2013-06-11 10:36:00,
2013-06-11 06:41:00,-999.0,-99.9,29.98,North,-999,-999.0,0.0,-999,0.00,,,0.00,WeatherCatV1.13B119,2013-06-11 10:41:00,
2013-06-11 06:46:00,-999.0,-99.9,29.98,North,-999,-999.0,0.0,-999,0.00,,,0.00,WeatherCatV1.13B119,2013-06-11 10:46:00,
2013-06-11 06:51:00,-999.0,-99.9,29.99,North,-999,-999.0,0.0,-999,0.00,,,0.00,WeatherCatV1.13B119,2013-06-11 10:51:00,
2013-06-11 06:56:00,-999.0,-99.9,29.99,North,-999,-999.0,0.0,-999,0.00,,,0.00,WeatherCatV1.13B119,2013-06-11 10:56:00,
2013-06-11 07:01:00,-999.0,-99.9,29.99,North,-999,-999.0,0.0,-999,0.00,,,0.00,WeatherCatV1.13B119,2013-06-11 11:01:00,
2013-06-11 07:06:00,-999.0,-99.9,29.99,North,-999,-999.0,0.0,-999,0.00,,,0.00,WeatherCatV1.13B119,2013-06-11 11:06:00,
2013-06-11 07:11:00,-999.0,-99.9,29.99,North,-999,-999.0,0.0,-999,0.00,,,0.00,WeatherCatV1.13B119,2013-06-11 11:11:00,
2013-06-11 07:16:00,-999.0,-99.9,29.99,North,-999,-999.0,0.0,-999,0.00,,,0.00,WeatherCatV1.13B119,2013-06-11 11:16:00,
2013-06-11 07:21:00,-999.0,-99.9,30.00,North,-999,-999.0,0.0,-999,0.00,,,0.00,WeatherCatV1.13B119,2013-06-11 11:21:00,
2013-06-11 07:26:00,-999.0,-99.9,30.00,North,-999,-999.0,0.0,-999,0.00,,,0.00,WeatherCatV1.13B119,2013-06-11 11:26:00,
2013-06-11 07:31:00,-999.0,-99.9,29.99,North,-999,-999.0,0.0,-999,0.00,,,0.00,WeatherCatV1.13B119,2013-06-11 11:31:00,
2013-06-11 07:36:00,-999.0,-99.9,30.00,North,-999,-999.0,0.0,-999,0.00,,,0.00,WeatherCatV1.13B119,2013-06-11 11:36:00,
2013-06-11 07:41:00,-999.0,-99.9,30.00,North,-999,-999.0,0.0,-999,0.00,,,0.00,WeatherCatV1.13B119,2013-06-11 11:41:00,
2013-06-11 07:46:00,-999.0,-99.9,30.00,North,-999,-999.0,0.0,-999,0.00,,,0.00,WeatherCatV1.13B119,2013-06-11 11:46:00,
2013-06-11 07:51:00,-999.0,-99.9,30.00,North,-999,-999.0,0.0,-999,0.00,,,0.00,WeatherCatV1.13B119,2013-06-11 11:51:00,
2013-06-11 07:56:00,80.6,77.7,30.00,SE,135,0.0,1.0,91,0.00,,,0.00,WeatherCatV1.13B119,2013-06-11 11:56:00,
2013-06-11 08:01:00,80.6,77.7,30.00,SE,136,0.0,0.0,91,0.00,,,0.00,WeatherCatV1.13B119,2013-06-11 12:01:00,
2013-06-11 08:06:00,80.7,77.8,30.00,SE,145,0.0,0.0,91,0.00,,,0.00,WeatherCatV1.13B119,2013-06-11 12:06:00,
2013-06-11 08:11:00,80.9,78.0,30.01,SE,146,0.0,0.0,91,0.00,,,0.00,WeatherCatV1.13B119,2013-06-11 12:11:00,
2013-06-11 08:16:00,81.0,78.1,30.01,SE,144,0.0,0.0,91,0.00,,,0.00,WeatherCatV1.13B119,2013-06-11 12:16:00,
2013-06-11 08:21:00,81.1,78.2,30.01,SE,145,0.0,0.0,91,0.00,,,0.00,WeatherCatV1.13B119,2013-06-11 12:21:00,
2013-06-11 08:26:00,81.1,77.9,30.01,East,79,0.0,1.0,90,0.00,,,0.00,WeatherCatV1.13B119,2013-06-11 12:26:00,
2013-06-11 08:31:00,81.2,78.0,30.01,East,82,0.0,0.0,90,0.00,,,0.00,WeatherCatV1.13B119,2013-06-11 12:31:00,
2013-06-11 08:36:00,81.2,78.0,30.02,East,91,0.0,0.0,90,0.00,,,0.00,WeatherCatV1.13B119,2013-06-11 12:36:00,
2013-06-11 08:41:00,81.3,78.1,30.02,East,91,0.0,0.0,90,0.00,,,0.00,WeatherCatV1.13B119,2013-06-11 12:41:00,
2013-06-11 08:46:00,81.3,78.1,30.03,East,91,0.0,0.0,90,0.00,,,0.00,WeatherCatV1.13B119,2013-06-11 12:46:00,
2013-06-11 08:51:00,81.4,78.2,30.02,East,92,0.0,0.0,90,0.00,,,0.00,WeatherCatV1.13B119,2013-06-11 12:51:00,
2013-06-11 08:56:00,81.4,78.2,30.02,East,92,0.0,0.0,90,0.00,,,0.00,WeatherCatV1.13B119,2013-06-11 12:56:00,
2013-06-11 09:01:00,81.4,78.2,30.02,East,92,0.0,0.0,90,0.00,,,0.00,WeatherCatV1.13B119,2013-06-11 13:01:00,
2013-06-11 09:06:00,81.4,78.2,30.02,East,92,0.0,0.0,90,0.00,,,0.00,WeatherCatV1.13B119,2013-06-11 13:06:00,
2013-06-11 09:11:00,81.4,77.8,30.02,East,92,0.0,0.0,89,0.00,,,0.00,WeatherCatV1.13B119,2013-06-11 13:11:00,
2013-06-11 09:16:00,81.3,77.7,30.02,East,92,0.0,0.0,89,0.00,,,0.00,WeatherCatV1.13B119,2013-06-11 13:16:00,
2013-06-11 09:21:00,81.1,76.8,30.03,East,82,0.0,10.0,87,0.00,,,0.00,WeatherCatV1.13B119,2013-06-11 13:21:00,
2013-06-11 09:26:00,80.5,75.9,30.03,NNE,15,0.0,0.0,86,0.00,,,0.00,WeatherCatV1.13B119,2013-06-11 13:26:00,
2013-06-11 09:31:00,80.2,74.9,30.03,NNE,22,0.0,0.0,84,0.00,,,0.00,WeatherCatV1.13B119,2013-06-11 13:31:00,
2013-06-11 09:36:00,80.0,74.7,30.04,East,86,0.0,1.0,84,1.94,,,0.04,WeatherCatV1.13B119,2013-06-11 13:36:00,
2013-06-11 09:41:00,80.0,76.1,30.04,SE,134,5.0,5.0,88,5.76,,,0.38,WeatherCatV1.13B119,2013-06-11 13:41:00,
2013-06-11 09:46:00,79.1,74.9,30.05,ESE,118,0.0,4.0,87,7.68,,,0.78,WeatherCatV1.13B119,2013-06-11 13:46:00,
2013-06-11 09:51:00,77.5,73.3,30.06,ESE,109,1.0,4.0,87,8.35,,,1.30,WeatherCatV1.13B119,2013-06-11 13:51:00,
2013-06-11 09:56:00,76.0,72.2,30.06,ESE,115,0.0,0.0,88,7.02,,,1.87,WeatherCatV1.13B119,2013-06-11 13:56:00,
2013-06-11 10:01:00,74.8,71.3,30.05,ENE,61,0.0,0.0,89,4.27,,,2.23,WeatherCatV1.13B119,2013-06-11 14:01:00,
2013-06-11 10:06:00,74.0,71.2,30.05,ENE,61,0.0,1.0,91,0.89,,,2.39,WeatherCatV1.13B119,2013-06-11 14:06:00,
2013-06-11 10:11:00,73.8,71.3,30.05,ENE,61,0.0,0.0,92,0.42,,,2.45,WeatherCatV1.13B119,2013-06-11 14:11:00,
2013-06-11 10:16:00,73.8,71.3,30.05,ENE,61,0.0,0.0,92,0.14,,,2.46,WeatherCatV1.13B119,2013-06-11 14:16:00,
2013-06-11 10:21:00,73.9,71.7,30.03,ENE,61,0.0,0.0,93,0.15,,,2.47,WeatherCatV1.13B119,2013-06-11 14:21:00,
2013-06-11 10:26:00,73.9,71.7,30.02,ENE,61,0.0,0.0,93,0.36,,,2.50,WeatherCatV1.13B119,2013-06-11 14:26:00,
2013-06-11 10:31:00,74.0,72.2,30.02,ENE,61,0.0,0.0,94,0.13,,,2.51,WeatherCatV1.13B119,2013-06-11 14:31:00,
2013-06-11 10:36:00,74.0,72.2,30.02,ENE,61,0.0,0.0,94,0.06,,,2.51,WeatherCatV1.13B119,2013-06-11 14:36:00,
2013-06-11 10:41:00,74.4,72.9,30.02,ENE,61,0.0,0.0,95,0.04,,,2.51,WeatherCatV1.13B119,2013-06-11 14:41:00,
2013-06-11 10:46:00,74.7,73.2,30.02,ENE,61,0.0,0.0,95,0.00,,,2.51,WeatherCatV1.13B119,2013-06-11 14:46:00,
2013-06-11 10:51:00,74.9,73.4,30.02,ENE,61,0.0,0.0,95,0.00,,,2.52,WeatherCatV1.13B119,2013-06-11 14:51:00,
2013-06-11 10:56:00,75.1,73.9,30.02,ENE,61,0.0,0.0,96,0.00,,,2.52,WeatherCatV1.13B119,2013-06-11 14:56:00,
2013-06-11 11:01:00,75.4,74.2,30.03,ENE,61,0.0,0.0,96,0.00,,,2.52,WeatherCatV1.13B119,2013-06-11 15:01:00,
2013-06-11 11:06:00,75.7,74.8,30.02,ENE,61,0.0,0.0,97,0.00,,,2.52,WeatherCatV1.13B119,2013-06-11 15:06:00,
2013-06-11 11:11:00,75.8,74.6,30.02,ENE,61,0.0,0.0,96,0.00,,,2.52,WeatherCatV1.13B119,2013-06-11 15:11:00,
2013-06-11 11:16:00,75.8,74.9,30.03,ENE,61,0.0,0.0,97,0.00,,,2.52,WeatherCatV1.13B119,2013-06-11 15:16:00,
2013-06-11 11:21:00,76.0,75.1,30.02,ENE,61,0.0,0.0,97,0.00,,,2.52,WeatherCatV1.13B119,2013-06-11 15:21:00,
2013-06-11 11:26:00,77.1,76.5,30.02,ENE,61,0.0,0.0,98,0.00,,,2.52,WeatherCatV1.13B119,2013-06-11 15:26:00,
2013-06-11 11:31:00,78.3,77.4,30.02,ENE,61,0.0,0.0,97,0.00,,,2.52,WeatherCatV1.13B119,2013-06-11 15:31:00,
2013-06-11 11:36:00,78.6,77.0,30.03,ENE,61,0.0,0.0,95,0.00,,,2.52,WeatherCatV1.13B119,2013-06-11 15:36:00,
2013-06-11 11:41:00,78.9,77.0,30.03,ENE,61,0.0,0.0,94,0.00,,,2.52,WeatherCatV1.13B119,2013-06-11 15:41:00,
2013-06-11 11:46:00,79.5,77.6,30.03,ENE,61,0.0,1.0,94,0.00,,,2.52,WeatherCatV1.13B119,2013-06-11 15:46:00,
2013-06-11 11:51:00,79.6,77.1,30.03,ENE,61,0.0,0.0,92,0.00,,,2.52,WeatherCatV1.13B119,2013-06-11 15:51:00,
2013-06-11 11:56:00,80.1,77.9,30.03,ENE,61,0.0,0.0,93,0.00,,,2.52,WeatherCatV1.13B119,2013-06-11 15:56:00,
2013-06-11 12:01:00,80.3,77.4,30.04,ENE,61,0.0,0.0,91,0.00,,,2.52,WeatherCatV1.13B119,2013-06-11 16:01:00,
2013-06-11 12:06:00,80.6,77.7,30.04,ENE,61,0.0,1.0,91,0.00,,,2.52,WeatherCatV1.13B119,2013-06-11 16:06:00,
2013-06-11 12:11:00,80.9,77.3,30.04,ENE,68,0.0,1.0,89,0.00,,,2.52,WeatherCatV1.13B119,2013-06-11 16:11:00,
2013-06-11 12:16:00,81.0,77.8,30.04,ENE,68,0.0,0.0,90,0.00,,,2.52,WeatherCatV1.13B119,2013-06-11 16:16:00,
2013-06-11 12:21:00,80.9,78.0,30.04,ENE,69,0.0,0.0,91,0.00,,,2.52,WeatherCatV1.13B119,2013-06-11 16:21:00,
2013-06-11 12:26:00,81.2,78.3,30.04,SSE,157,0.0,1.0,91,0.00,,,2.52,WeatherCatV1.13B119,2013-06-11 16:26:00,
2013-06-11 12:31:00,82.3,79.4,30.04,East,101,0.0,1.0,91,0.00,,,2.52,WeatherCatV1.13B119,2013-06-11 16:31:00,
2013-06-11 12:36:00,82.5,79.6,30.04,East,101,0.0,0.0,91,0.00,,,2.52,WeatherCatV1.13B119,2013-06-11 16:36:00,
2013-06-11 12:41:00,82.3,78.4,30.04,East,101,0.0,0.0,88,0.00,,,2.52,WeatherCatV1.13B119,2013-06-11 16:41:00,
2013-06-11 12:46:00,82.4,79.5,30.04,ESE,115,0.0,0.0,91,0.00,,,2.52,WeatherCatV1.13B119,2013-06-11 16:46:00,
2013-06-11 12:51:00,82.4,78.8,30.04,East,89,0.0,0.0,89,0.00,,,2.52,WeatherCatV1.13B119,2013-06-11 16:51:00,
2013-06-11 12:56:00,81.8,78.6,30.03,ESE,109,0.0,1.0,90,0.00,,,2.52,WeatherCatV1.13B119,2013-06-11 16:56:00,
2013-06-11 13:01:00,81.3,78.4,30.03,ESE,112,0.0,2.0,91,0.00,,,2.52,WeatherCatV1.13B119,2013-06-11 17:01:00,
2013-06-11 13:06:00,80.9,78.3,30.03,ESE,115,0.0,0.0,92,0.00,,,2.52,WeatherCatV1.13B119,2013-06-11 17:06:00,
2013-06-11 13:11:00,80.6,78.1,30.03,ESE,113,0.0,0.0,92,0.00,,,2.52,WeatherCatV1.13B119,2013-06-11 17:11:00,
2013-06-11 13:16:00,80.5,78.3,30.03,ESE,113,0.0,0.0,93,0.00,,,2.52,WeatherCatV1.13B119,2013-06-11 17:16:00,
2013-06-11 13:21:00,80.2,77.7,30.03,ESE,113,0.0,0.0,92,0.00,,,2.52,WeatherCatV1.13B119,2013-06-11 17:21:00,
2013-06-11 13:26:00,80.1,77.6,30.03,ESE,113,0.0,0.0,92,0.00,,,2.52,WeatherCatV1.13B119,2013-06-11 17:26:00,
2013-06-11 13:31:00,80.5,78.3,30.03,ESE,113,0.0,0.0,93,0.00,,,2.52,WeatherCatV1.13B119,2013-06-11 17:31:00,
2013-06-11 13:36:00,81.1,78.2,30.02,SSW,192,0.0,0.0,91,0.00,,,2.52,WeatherCatV1.13B119,2013-06-11 17:36:00,
2013-06-11 13:41:00,81.4,77.8,30.02,SSW,207,0.0,0.0,89,0.00,,,2.52,WeatherCatV1.13B119,2013-06-11 17:41:00,
2013-06-11 13:46:00,82.6,79.0,30.02,SSW,207,0.0,0.0,89,0.00,,,2.52,WeatherCatV1.13B119,2013-06-11 17:46:00,
2013-06-11 13:51:00,82.6,78.7,30.02,SSW,207,0.0,1.0,88,0.00,,,2.52,WeatherCatV1.13B119,2013-06-11 17:51:00,
2013-06-11 13:56:00,82.4,79.2,30.02,South,184,0.0,0.0,90,0.00,,,2.52,WeatherCatV1.13B119,2013-06-11 17:56:00,
2013-06-11 14:01:00,82.6,79.4,30.02,South,178,0.0,1.0,90,0.00,,,2.52,WeatherCatV1.13B119,2013-06-11 18:01:00,
2013-06-11 14:06:00,82.9,79.3,30.02,South,169,0.0,1.0,89,0.00,,,2.52,WeatherCatV1.13B119,2013-06-11 18:06:00,
2013-06-11 14:11:00,82.9,79.3,30.02,SSE,155,0.0,4.0,89,0.00,,,2.52,WeatherCatV1.13B119,2013-06-11 18:11:00,
2013-06-11 14:16:00,82.8,79.2,30.02,SE,139,0.0,0.0,89,0.00,,,2.52,WeatherCatV1.13B119,2013-06-11 18:16:00,
2013-06-11 14:21:00,82.9,79.0,30.02,SE,135,0.0,0.0,88,0.00,,,2.52,WeatherCatV1.13B119,2013-06-11 18:21:00,
2013-06-11 14:26:00,82.6,78.7,30.01,SE,134,0.0,0.0,88,0.00,,,2.52,WeatherCatV1.13B119,2013-06-11 18:26:00,
2013-06-11 14:31:00,82.8,78.9,30.01,SE,130,0.0,0.0,88,0.00,,,2.52,WeatherCatV1.13B119,2013-06-11 18:31:00,
2013-06-11 14:36:00,82.9,79.0,30.01,SE,131,0.0,0.0,88,0.00,,,2.52,WeatherCatV1.13B119,2013-06-11 18:36:00,
2013-06-11 14:41:00,82.9,79.0,30.01,ESE,116,0.0,0.0,88,0.00,,,2.52,WeatherCatV1.13B119,2013-06-11 18:41:00,
2013-06-11 14:46:00,83.0,79.1,30.00,ESE,117,0.0,0.0,88,0.00,,,2.52,WeatherCatV1.13B119,2013-06-11 18:46:00,
2013-06-11 14:51:00,82.9,79.0,30.00,ESE,117,0.0,0.0,88,0.00,,,2.52,WeatherCatV1.13B119,2013-06-11 18:51:00,
2013-06-11 14:56:00,83.0,79.1,30.00,ESE,117,0.0,0.0,88,0.00,,,2.52,WeatherCatV1.13B119,2013-06-11 18:56:00,
2013-06-11 15:01:00,83.0,79.1,30.00,ESE,117,0.0,1.0,88,0.00,,,2.52,WeatherCatV1.13B119,2013-06-11 19:01:00,
2013-06-11 15:06:00,82.9,79.0,30.00,ESE,117,0.0,1.0,88,0.00,,,2.52,WeatherCatV1.13B119,2013-06-11 19:06:00,
2013-06-11 15:11:00,82.9,79.0,29.99,ESE,116,0.0,0.0,88,0.00,,,2.52,WeatherCatV1.13B119,2013-06-11 19:11:00,
2013-06-11 15:16:00,82.8,78.9,29.99,ESE,116,0.0,0.0,88,0.00,,,2.52,WeatherCatV1.13B119,2013-06-11 19:16:00,
2013-06-11 15:21:00,82.5,78.2,29.99,ESE,117,0.0,0.0,87,0.00,,,2.52,WeatherCatV1.13B119,2013-06-11 19:21:00,
2013-06-11 15:26:00,82.5,78.6,29.99,ESE,117,0.0,0.0,88,0.00,,,2.52,WeatherCatV1.13B119,2013-06-11 19:26:00,
2013-06-11 15:31:00,82.5,78.6,29.99,ESE,118,0.0,0.0,88,0.00,,,2.52,WeatherCatV1.13B119,2013-06-11 19:31:00,
2013-06-11 15:36:00,82.5,78.6,29.99,ESE,117,0.0,0.0,88,0.00,,,2.52,WeatherCatV1.13B119,2013-06-11 19:36:00,
2013-06-11 15:41:00,82.4,78.5,29.98,ESE,117,0.0,0.0,88,0.00,,,2.52,WeatherCatV1.13B119,2013-06-11 19:41:00,
2013-06-11 15:46:00,82.5,78.6,29.98,ESE,117,0.0,0.0,88,0.00,,,2.52,WeatherCatV1.13B119,2013-06-11 19:46:00,
2013-06-11 15:51:00,82.5,78.6,29.98,ESE,117,0.0,0.0,88,0.00,,,2.52,WeatherCatV1.13B119,2013-06-11 19:51:00,
2013-06-11 15:56:00,82.4,78.5,29.98,ESE,117,0.0,0.0,88,0.00,,,2.52,WeatherCatV1.13B119,2013-06-11 19:56:00,
2013-06-11 16:01:00,82.6,79.0,29.98,ESE,117,0.0,0.0,89,0.00,,,2.52,WeatherCatV1.13B119,2013-06-11 20:01:00,
2013-06-11 16:06:00,82.7,79.1,29.98,ESE,117,0.0,0.0,89,0.00,,,2.52,WeatherCatV1.13B119,2013-06-11 20:06:00,
2013-06-11 16:11:00,82.7,79.1,29.98,ESE,119,0.0,1.0,89,0.00,,,2.52,WeatherCatV1.13B119,2013-06-11 20:11:00,
2013-06-11 16:16:00,82.7,79.1,29.97,ESE,119,0.0,0.0,89,0.00,,,2.52,WeatherCatV1.13B119,2013-06-11 20:16:00,
2013-06-11 16:21:00,82.8,79.2,29.97,ESE,119,0.0,0.0,89,0.00,,,2.52,WeatherCatV1.13B119,2013-06-11 20:21:00,
2013-06-11 16:26:00,82.9,79.3,29.97,ESE,123,0.0,0.0,89,0.00,,,2.52,WeatherCatV1.13B119,2013-06-11 20:26:00,
2013-06-11 16:31:00,82.9,79.0,29.97,ESE,110,0.0,1.0,88,0.00,,,2.52,WeatherCatV1.13B119,2013-06-11 20:31:00,
2013-06-11 16:36:00,83.0,79.1,29.97,ESE,110,0.0,0.0,88,0.00,,,2.52,WeatherCatV1.13B119,2013-06-11 20:36:00,
2013-06-11 16:41:00,83.0,79.1,29.97,ESE,110,0.0,0.0,88,0.00,,,2.52,WeatherCatV1.13B119,2013-06-11 20:41:00,
2013-06-11 16:46:00,83.1,79.2,29.96,ESE,111,1.0,1.0,88,0.00,,,2.52,WeatherCatV1.13B119,2013-06-11 20:46:00,
2013-06-11 16:51:00,83.2,79.3,29.96,ESE,110,0.0,0.0,88,0.00,,,2.52,WeatherCatV1.13B119,2013-06-11 20:51:00,
2013-06-11 16:56:00,83.3,79.0,29.96,ESE,111,0.0,0.0,87,0.00,,,2.52,WeatherCatV1.13B119,2013-06-11 20:56:00,
2013-06-11 17:01:00,83.4,79.1,29.97,SSE,147,0.0,2.0,87,0.00,,,2.52,WeatherCatV1.13B119,2013-06-11 21:01:00,
2013-06-11 17:06:00,83.4,79.1,29.96,SE,135,0.0,1.0,87,0.00,,,2.52,WeatherCatV1.13B119,2013-06-11 21:06:00,
2013-06-11 17:11:00,83.4,78.8,29.96,ESE,117,0.0,4.0,86,0.00,,,2.52,WeatherCatV1.13B119,2013-06-11 21:11:00,
2013-06-11 17:16:00,83.5,78.9,29.97,ESE,119,0.0,0.0,86,0.00,,,2.52,WeatherCatV1.13B119,2013-06-11 21:16:00,
2013-06-11 17:21:00,83.6,79.3,29.96,ESE,119,0.0,1.0,87,0.00,,,2.52,WeatherCatV1.13B119,2013-06-11 21:21:00,
2013-06-11 17:26:00,83.6,79.0,29.97,ESE,120,0.0,1.0,86,0.00,,,2.52,WeatherCatV1.13B119,2013-06-11 21:26:00,
2013-06-11 17:31:00,83.7,79.4,29.97,East,101,0.0,2.0,87,0.00,,,2.52,WeatherCatV1.13B119,2013-06-11 21:31:00,
2013-06-11 17:36:00,83.7,79.0,29.97,WNW,284,0.0,1.0,86,0.00,,,2.52,WeatherCatV1.13B119,2013-06-11 21:36:00,
2013-06-11 17:41:00,83.7,79.0,29.97,WNW,284,0.0,1.0,86,0.00,,,2.52,WeatherCatV1.13B119,2013-06-11 21:41:00,
2013-06-11 17:46:00,83.7,79.0,29.96,West,265,0.0,1.0,86,0.00,,,2.52,WeatherCatV1.13B119,2013-06-11 21:46:00,
2013-06-11 17:51:00,83.7,79.0,29.96,South,183,0.0,1.0,86,0.00,,,2.52,WeatherCatV1.13B119,2013-06-11 21:51:00,
2013-06-11 17:56:00,83.5,78.5,29.96,SSE,163,0.0,2.0,85,0.00,,,2.52,WeatherCatV1.13B119,2013-06-11 21:56:00,
2013-06-11 18:01:00,83.5,78.9,29.96,SE,144,0.0,2.0,86,0.00,,,2.52,WeatherCatV1.13B119,2013-06-11 22:01:00,
2013-06-11 18:06:00,83.4,78.8,29.96,SE,144,0.0,0.0,86,0.00,,,2.52,WeatherCatV1.13B119,2013-06-11 22:06:00,
2013-06-11 18:11:00,83.3,78.7,29.96,SE,142,0.0,4.0,86,0.00,,,2.52,WeatherCatV1.13B119,2013-06-11 22:11:00,
2013-06-11 18:16:00,83.2,78.6,29.96,ENE,78,0.0,1.0,86,0.00,,,2.52,WeatherCatV1.13B119,2013-06-11 22:16:00,
2013-06-11 18:21:00,83.2,78.9,29.97,East,82,0.0,1.0,87,0.00,,,2.52,WeatherCatV1.13B119,2013-06-11 22:21:00,
2013-06-11 18:26:00,83.1,78.8,29.97,East,88,0.0,1.0,87,0.00,,,2.52,WeatherCatV1.13B119,2013-06-11 22:26:00,
2013-06-11 18:31:00,83.0,78.7,29.98,East,89,0.0,0.0,87,0.00,,,2.52,WeatherCatV1.13B119,2013-06-11 22:31:00,
2013-06-11 18:36:00,82.9,78.3,29.98,East,90,0.0,0.0,86,0.00,,,2.52,WeatherCatV1.13B119,2013-06-11 22:36:00,
2013-06-11 18:41:00,82.6,78.0,29.98,East,90,0.0,0.0,86,0.00,,,2.52,WeatherCatV1.13B119,2013-06-11 22:41:00,
2013-06-11 18:46:00,82.6,78.3,29.99,East,97,0.0,1.0,87,0.00,,,2.52,WeatherCatV1.13B119,2013-06-11 22:46:00,
2013-06-11 18:51:00,82.5,78.2,29.99,East,97,0.0,0.0,87,0.00,,,2.52,WeatherCatV1.13B119,2013-06-11 22:51:00,
2013-06-11 18:56:00,82.4,78.1,29.99,East,97,0.0,0.0,87,0.00,,,2.52,WeatherCatV1.13B119,2013-06-11 22:56:00,
2013-06-11 19:01:00,82.3,78.0,29.99,East,97,0.0,0.0,87,0.00,,,2.52,WeatherCatV1.13B119,2013-06-11 23:01:00,
2013-06-11 19:06:00,82.2,77.9,30.00,East,97,0.0,0.0,87,0.00,,,2.52,WeatherCatV1.13B119,2013-06-11 23:06:00,
2013-06-11 19:11:00,82.1,78.2,30.00,East,97,0.0,0.0,88,0.00,,,2.52,WeatherCatV1.13B119,2013-06-11 23:11:00,
2013-06-11 19:16:00,82.1,78.2,30.00,East,97,0.0,0.0,88,0.00,,,2.52,WeatherCatV1.13B119,2013-06-11 23:16:00,
2013-06-11 19:21:00,82.0,78.1,30.00,East,101,0.0,0.0,88,0.00,,,2.52,WeatherCatV1.13B119,2013-06-11 23:21:00,
2013-06-11 19:26:00,81.9,78.0,30.00,East,101,0.0,0.0,88,0.00,,,2.52,WeatherCatV1.13B119,2013-06-11 23:26:00,
2013-06-11 19:31:00,81.8,77.9,30.00,East,101,0.0,0.0,88,0.00,,,2.52,WeatherCatV1.13B119,2013-06-11 23:31:00,
2013-06-11 19:36:00,81.8,77.9,30.00,ESE,105,0.0,0.0,88,0.00,,,2.52,WeatherCatV1.13B119,2013-06-11 23:36:00,
2013-06-11 19:41:00,81.6,77.7,30.00,ESE,105,0.0,0.0,88,0.00,,,2.52,WeatherCatV1.13B119,2013-06-11 23:41:00,
2013-06-11 19:46:00,81.6,77.7,30.00,ESE,105,0.0,1.0,88,0.00,,,2.52,WeatherCatV1.13B119,2013-06-11 23:46:00,
2013-06-11 19:51:00,81.6,77.7,30.00,ESE,115,0.0,2.0,88,0.00,,,2.52,WeatherCatV1.13B119,2013-06-11 23:51:00,
2013-06-11 19:56:00,81.6,78.0,30.00,ESE,115,0.0,0.0,89,0.00,,,2.52,WeatherCatV1.13B119,2013-06-11 23:56:00,
2013-06-11 20:01:00,81.6,78.0,30.00,ESE,115,0.0,0.0,89,0.00,,,2.52,WeatherCatV1.13B119,2013-06-12 00:01:00,
2013-06-11 20:06:00,81.5,77.9,30.00,ESE,105,0.0,1.0,89,0.00,,,2.52,WeatherCatV1.13B119,2013-06-12 00:06:00,
2013-06-11 20:11:00,81.4,77.8,30.00,SE,141,0.0,1.0,89,0.00,,,2.52,WeatherCatV1.13B119,2013-06-12 00:11:00,
2013-06-11 20:16:00,81.4,77.8,30.00,South,178,0.0,0.0,89,0.00,,,2.52,WeatherCatV1.13B119,2013-06-12 00:16:00,
2013-06-11 20:21:00,81.4,77.8,30.00,SE,126,1.0,1.0,89,0.00,,,2.52,WeatherCatV1.13B119,2013-06-12 00:21:00,
2013-06-11 20:26:00,81.4,77.8,30.00,SE,126,0.0,0.0,89,0.00,,,2.52,WeatherCatV1.13B119,2013-06-12 00:26:00,
2013-06-11 20:31:00,81.4,77.8,30.00,SE,126,0.0,0.0,89,0.00,,,2.52,WeatherCatV1.13B119,2013-06-12 00:31:00,
2013-06-11 20:36:00,81.3,77.7,30.00,SE,144,0.0,0.0,89,0.00,,,2.52,WeatherCatV1.13B119,2013-06-12 00:36:00,
2013-06-11 20:41:00,81.3,77.7,30.00,SE,144,0.0,0.0,89,0.00,,,2.52,WeatherCatV1.13B119,2013-06-12 00:41:00,
2013-06-11 20:46:00,81.3,78.1,30.00,SE,142,0.0,0.0,90,0.00,,,2.52,WeatherCatV1.13B119,2013-06-12 00:46:00,
2013-06-11 20:51:00,81.3,78.1,30.00,SE,128,0.0,1.0,90,0.00,,,2.52,WeatherCatV1.13B119,2013-06-12 00:51:00,
2013-06-11 20:56:00,81.3,78.1,30.00,SE,129,0.0,0.0,90,0.00,,,2.52,WeatherCatV1.13B119,2013-06-12 00:56:00,
2013-06-11 21:01:00,81.3,78.1,30.00,SE,135,0.0,0.0,90,0.00,,,2.52,WeatherCatV1.13B119,2013-06-12 01:01:00,
2013-06-11 21:06:00,81.3,78.1,30.00,SE,135,0.0,1.0,90,0.00,,,2.52,WeatherCatV1.13B119,2013-06-12 01:06:00,
2013-06-11 21:11:00,81.3,78.1,30.00,SE,132,0.0,0.0,90,0.00,,,2.52,WeatherCatV1.13B119,2013-06-12 01:11:00,
2013-06-11 21:16:00,81.3,78.1,30.01,SE,132,0.0,0.0,90,0.00,,,2.52,WeatherCatV1.13B119,2013-06-12 01:16:00,
2013-06-11 21:21:00,81.3,78.1,30.01,SE,132,0.0,0.0,90,0.00,,,2.52,WeatherCatV1.13B119,2013-06-12 01:21:00,
2013-06-11 21:26:00,81.2,78.0,30.01,SE,133,0.0,1.0,90,0.00,,,2.52,WeatherCatV1.13B119,2013-06-12 01:26:00,
2013-06-11 21:31:00,81.2,78.0,30.01,SE,134,0.0,0.0,90,0.00,,,2.52,WeatherCatV1.13B119,2013-06-12 01:31:00,
2013-06-11 21:36:00,81.2,78.0,30.01,SE,134,0.0,0.0,90,0.00,,,2.52,WeatherCatV1.13B119,2013-06-12 01:36:00,
2013-06-11 21:41:00,81.3,78.1,30.01,SE,138,0.0,2.0,90,0.00,,,2.52,WeatherCatV1.13B119,2013-06-12 01:41:00,
2013-06-11 21:46:00,81.2,78.0,30.01,SE,139,0.0,0.0,90,0.00,,,2.52,WeatherCatV1.13B119,2013-06-12 01:46:00,
2013-06-11 21:51:00,81.2,78.0,30.01,SE,135,0.0,2.0,90,0.00,,,2.52,WeatherCatV1.13B119,2013-06-12 01:51:00,
2013-06-11 21:56:00,81.2,78.0,30.01,SE,132,0.0,0.0,90,0.00,,,2.52,WeatherCatV1.13B119,2013-06-12 01:56:00,
2013-06-11 22:01:00,81.1,77.9,30.01,SE,139,3.0,4.0,90,0.00,,,2.52,WeatherCatV1.13B119,2013-06-12 02:01:00,
2013-06-11 22:06:00,81.1,77.9,30.00,SE,140,0.0,1.0,90,0.00,,,2.52,WeatherCatV1.13B119,2013-06-12 02:06:00,
2013-06-11 22:11:00,81.1,78.2,30.00,SE,134,0.0,0.0,91,0.00,,,2.52,WeatherCatV1.13B119,2013-06-12 02:11:00,
2013-06-11 22:16:00,81.1,77.9,30.00,ESE,103,0.0,1.0,90,0.00,,,2.52,WeatherCatV1.13B119,2013-06-12 02:16:00,
2013-06-11 22:21:00,81.1,77.9,30.00,SSE,147,0.0,1.0,90,0.00,,,2.52,WeatherCatV1.13B119,2013-06-12 02:21:00,
2013-06-11 22:26:00,81.1,77.9,30.00,SE,138,0.0,0.0,90,0.00,,,2.52,WeatherCatV1.13B119,2013-06-12 02:26:00,
2013-06-11 22:31:00,81.1,77.9,30.00,SE,137,0.0,1.0,90,0.00,,,2.52,WeatherCatV1.13B119,2013-06-12 02:31:00,
2013-06-11 22:36:00,81.1,77.9,30.00,SE,141,0.0,5.0,90,0.00,,,2.52,WeatherCatV1.13B119,2013-06-12 02:36:00,
2013-06-11 22:41:00,81.1,77.9,30.00,ESE,115,0.0,2.0,90,0.00,,,2.52,WeatherCatV1.13B119,2013-06-12 02:41:00,
2013-06-11 22:46:00,81.0,78.1,30.00,SE,130,1.0,2.0,91,0.00,,,2.52,WeatherCatV1.13B119,2013-06-12 02:46:00,
2013-06-11 22:51:00,81.1,78.2,30.00,ESE,122,1.0,1.0,91,0.00,,,2.52,WeatherCatV1.13B119,2013-06-12 02:51:00,
2013-06-11 22:56:00,81.1,78.2,30.00,ESE,121,0.0,0.0,91,0.00,,,2.52,WeatherCatV1.13B119,2013-06-12 02:56:00,
2013-06-11 23:01:00,81.0,78.1,30.00,SSE,151,0.0,0.0,91,0.00,,,2.52,WeatherCatV1.13B119,2013-06-12 03:01:00,
2013-06-11 23:06:00,81.1,78.2,30.00,SSE,149,0.0,0.0,91,0.00,,,2.52,WeatherCatV1.13B119,2013-06-12 03:06:00,
2013-06-11 23:11:00,81.0,77.8,30.00,SSE,166,0.0,3.0,90,0.00,,,2.52,WeatherCatV1.13B119,2013-06-12 03:11:00,
2013-06-11 23:16:00,81.0,78.1,30.00,SSE,147,0.0,1.0,91,0.00,,,2.52,WeatherCatV1.13B119,2013-06-12 03:16:00,
2013-06-11 23:21:00,81.0,78.1,30.00,SE,132,0.0,1.0,91,0.00,,,2.52,WeatherCatV1.13B119,2013-06-12 03:21:00,
2013-06-11 23:26:00,81.0,78.1,30.00,SSE,149,0.0,0.0,91,0.00,,,2.52,WeatherCatV1.13B119,2013-06-12 03:26:00,
2013-06-11 23:31:00,81.0,78.1,30.00,ESE,102,0.0,1.0,91,0.00,,,2.52,WeatherCatV1.13B119,2013-06-12 03:31:00,
2013-06-11 23:36:00,80.9,78.0,30.00,SE,138,1.0,1.0,91,0.00,,,2.52,WeatherCatV1.13B119,2013-06-12 03:36:00,
2013-06-11 23:41:00,80.9,77.7,30.01,SE,142,0.0,1.0,90,0.00,,,2.52,WeatherCatV1.13B119,2013-06-12 03:41:00,
2013-06-11 23:46:00,81.0,78.1,30.01,SSE,164,0.0,1.0,91,0.00,,,2.52,WeatherCatV1.13B119,2013-06-12 03:46:00,
2013-06-11 23:51:00,81.0,78.1,30.01,SSE,158,0.0,1.0,91,0.00,,,2.52,WeatherCatV1.13B119,2013-06-12 03:51:00,
2013-06-11 23:56:00,81.0,78.1,30.01,SSE,147,0.0,0.0,91,0.00,,,2.52,WeatherCatV1.13B119,2013-06-12 03:56:00,